Latest Weather Observations for Brisbane

IDQ60801

Issued at 7:32 pm EST Tuesday 26 May 2015 (issued every 30 minutes, with the page automatically refreshed every 10 minutes)

About weather observations | Map of weather stations | Latest weather observations for QLD | Other Formats
Station Details ID: 040913 Name: BRISBANE Lat: -27.48 Lon: 153.04 Height: 8.13 m
Data from the previous 72 hours. | See also: Recent months at Brisbane
Date/Time
EST
Temp
°C
App
Temp
°C
Dew
Point
Rel
Hum
%
Delta-T
°C
Wind Press
QNH
hPa
Press
MSL
hPa
Rain
since 9 am
mm
Dir
 
Spd
km/h
Gust
km/h
Spd
kts
Gust
kts
26/07:30pm 18.7 19.9 15.0 79 2.1 ESE 2 6 1 3 1025.8 1025.8 -
26/07:00pm 18.4 19.8 14.5 78 2.2 CALM 0 0 0 0 1025.5 1025.5 -
26/06:30pm 19.0 19.8 14.9 77 2.4 ESE 4 6 2 3 1025.3 1025.3 -
26/06:00pm 19.3 20.0 14.6 74 2.7 E 4 6 2 3 1025.3 1025.3 -
26/05:30pm 19.8 20.4 14.2 70 3.2 ESE 4 7 2 4 1024.8 1024.8 -
26/05:00pm 20.3 20.1 13.7 66 3.8 ESE 7 11 4 6 1024.5 1024.5 -
26/04:30pm 20.7 20.9 14.1 66 3.8 E 6 9 3 5 1024.5 1024.5 -
26/04:00pm 21.2 21.3 13.9 63 4.2 E 6 9 3 5 1024.0 1024.0 -
26/03:30pm 21.7 21.8 13.9 61 4.5 E 6 9 3 5 1023.9 1023.9 -
26/03:00pm 21.8 22.1 13.4 59 4.8 E 4 7 2 4 1024.2 1024.2 -
26/02:30pm 21.9 22.5 13.0 57 5.1 ESE 2 7 1 4 1024.4 1024.4 -
26/02:00pm 22.1 22.9 12.6 55 5.4 CALM 0 0 0 0 1024.8 1024.8 -
26/01:00pm 22.5 22.8 13.3 56 5.3 SE 4 11 2 6 1025.3 1025.3 0.0
26/12:30pm 22.0 21.8 13.1 57 5.1 ESE 6 9 3 5 1025.6 1025.6 0.0
26/12:00pm 22.6 22.9 14.4 60 4.8 SSW 6 11 3 6 1026.7 1026.7 0.0
26/11:30am 21.6 22.1 14.0 62 4.4 SSW 4 9 2 5 1027.3 1027.3 0.0
26/11:00am 20.5 20.3 13.0 62 4.2 SW 6 11 3 6 1027.7 1027.7 0.0
26/10:30am 20.6 20.5 13.3 63 4.2 SW 6 11 3 6 1027.9 1027.9 0.0
26/10:00am 19.3 19.2 13.3 68 3.4 WSW 6 9 3 5 1028.3 1028.3 0.0
26/09:30am 18.8 18.5 12.8 68 3.4 SW 6 13 3 7 1028.2 1028.2 0.0
26/09:00am 17.4 17.4 12.5 73 2.7 SSW 4 9 2 5 1028.6 1028.6 0.0
26/08:30am 15.8 15.3 12.2 79 2.0 SW 6 9 3 5 1028.5 1028.5 0.0
26/08:00am 14.8 14.8 12.3 85 1.4 SW 4 7 2 4 1028.6 1028.6 0.0
26/07:30am 13.8 13.1 11.5 86 1.2 SW 6 13 3 7 1028.8 1028.8 0.0
26/07:00am 13.0 12.7 11.4 90 0.8 SSW 4 9 2 5 1028.7 1028.7 0.0
26/06:30am 12.9 12.9 11.3 90 0.8 SW 2 9 1 5 1028.2 1028.2 0.0
26/06:00am 12.9 12.6 11.5 91 0.7 SW 4 9 2 5 1028.0 1028.0 0.0
26/05:30am 12.9 12.6 11.5 91 0.7 SW 4 7 2 4 1027.9 1027.9 0.0
26/05:00am 12.9 12.2 11.5 91 0.7 SW 6 7 3 4 1027.6 1027.6 0.0
26/04:30am 13.0 12.7 11.6 91 0.7 SW 4 9 2 5 1027.7 1027.7 0.0
26/04:00am 13.3 12.7 11.7 90 0.8 SW 6 11 3 6 1027.7 1027.7 0.0
26/03:30am 13.2 12.9 11.6 90 0.9 SW 4 7 2 4 1027.9 1027.9 0.0
26/03:00am 13.6 13.0 11.8 89 1.0 SW 6 9 3 5 1027.9 1027.9 0.0
26/02:30am 13.6 13.5 12.0 90 0.9 W 4 4 2 2 1028.2 1028.2 0.0
26/02:00am 14.0 14.2 12.0 88 1.1 WSW 2 6 1 3 1027.9 1027.9 0.0
26/01:30am 14.2 14.5 12.2 88 1.1 SW 2 6 1 3 1028.1 1028.1 0.0
26/01:00am 14.7 14.7 12.4 86 1.2 SSW 4 9 2 5 1028.3 1028.3 0.0
26/12:30am 14.8 14.8 12.3 85 1.4 SW 4 7 2 4 1028.4 1028.4 0.0
26/12:00am 14.7 15.3 12.0 84 1.5 CALM 0 4 0 2 1028.7 1028.7 0.0
 
Date/Time
EST
Temp
°C
App
Temp
°C
Dew
Point
Rel
Hum
%
Delta-T
°C
Wind Press
QNH
hPa
Press
MSL
hPa
Rain
since 9 am
mm
Dir
 
Spd
km/h
Gust
km/h
Spd
kts
Gust
kts
25/11:30pm 15.1 15.5 12.4 84 1.5 WSW 2 6 1 3 1028.9 1028.9 0.0
25/11:00pm 15.3 15.2 12.2 82 1.7 WSW 4 4 2 2 1029.2 1029.2 0.0
25/10:30pm 15.6 15.6 12.5 82 1.7 SW 4 7 2 4 1029.1 1029.1 0.0
25/10:00pm 15.9 16.0 12.6 81 1.8 WSW 4 7 2 4 1029.3 1029.3 0.0
25/09:30pm 15.5 15.8 12.3 81 1.7 SW 2 6 1 3 1029.6 1029.6 0.0
25/09:00pm 16.1 16.5 12.5 79 2.0 WSW 2 4 1 2 1029.6 1029.6 0.0
25/08:30pm 17.0 17.3 12.3 74 2.6 SSW 2 7 1 4 1029.5 1029.5 0.0
25/08:00pm 17.1 17.5 12.6 75 2.5 SSW 2 4 1 2 1029.3 1029.3 0.0
25/07:30pm 16.8 17.7 12.9 78 2.2 CALM 0 2 0 1 1029.1 1029.1 0.0
25/07:00pm 16.8 17.7 12.9 78 2.2 CALM 0 0 0 0 1028.6 1028.6 0.0
25/06:30pm 16.8 17.6 12.5 76 2.4 CALM 0 4 0 2 1028.6 1028.6 0.0
25/06:00pm 17.5 17.7 12.0 70 3.0 ESE 2 6 1 3 1028.4 1028.4 0.0
25/05:30pm 18.9 18.9 12.4 66 3.6 ESE 4 6 2 3 1028.3 1028.3 0.0
25/05:00pm 19.9 19.5 12.4 62 4.2 ESE 6 9 3 5 1028.5 1028.5 0.0
25/04:30pm 20.3 19.6 11.5 57 4.9 ESE 6 9 3 5 1028.4 1028.4 0.0
25/04:00pm 20.5 19.7 10.9 54 5.2 SE 6 9 3 5 1027.9 1027.9 0.0
25/03:30pm 21.4 19.2 10.9 51 5.8 E 13 19 7 10 1027.7 1027.7 0.0
25/03:00pm 22.2 20.4 11.0 49 6.2 ESE 11 19 6 10 1027.6 1027.6 0.0
25/02:30pm 21.4 20.4 11.1 52 5.7 ESE 7 15 4 8 1027.6 1027.6 0.0
25/02:00pm 22.2 20.9 12.5 54 5.5 E 11 17 6 9 1027.6 1027.6 0.0
25/01:30pm 22.1 21.7 12.4 54 5.5 E 6 15 3 8 1028.0 1028.0 0.0
25/01:00pm 21.4 20.3 12.0 55 5.2 SE 9 19 5 10 1028.2 1028.2 0.0
25/12:30pm 23.3 22.9 12.9 52 6.0 E 7 15 4 8 1028.6 1028.6 0.0
25/12:00pm 22.2 22.0 13.5 57 5.0 ESE 7 13 4 7 1029.2 1029.2 0.0
25/11:30am 21.5 21.1 12.9 58 4.9 ESE 7 15 4 8 1029.8 1029.8 0.0
25/11:00am 22.0 21.6 13.1 57 5.1 SE 7 17 4 9 1030.2 1030.2 0.0
25/10:30am 21.6 21.6 13.5 60 4.7 S 6 13 3 7 1030.8 1030.8 0.0
25/10:00am 20.9 21.3 13.8 64 4.1 SSW 4 11 2 6 1030.9 1030.9 0.0
25/09:30am 19.1 19.2 12.8 67 3.5 WSW 4 9 2 5 1031.0 1031.0 0.0
25/09:00am 18.3 18.3 12.5 69 3.2 SW 4 9 2 5 1030.9 1030.9 0.0
25/08:30am 17.3 16.8 12.2 72 2.8 SSW 6 11 3 6 1030.7 1030.7 0.0
25/08:00am 15.8 15.5 11.4 75 2.3 SSW 4 9 2 5 1030.1 1030.1 0.0
25/07:30am 14.8 14.2 11.6 81 1.7 SW 6 9 3 5 1030.1 1030.1 0.0
25/07:00am 13.3 13.0 11.5 89 0.9 SW 4 6 2 3 1030.2 1030.2 0.0
25/06:30am 13.0 13.0 11.2 89 0.9 WSW 2 6 1 3 1030.1 1030.1 0.0
25/06:00am 13.4 13.1 11.5 88 1.0 WSW 4 6 2 3 1030.0 1030.0 0.0
25/05:30am 13.4 13.1 11.3 87 1.1 SW 4 7 2 4 1029.8 1029.8 0.0
25/05:00am 13.4 13.4 11.1 86 1.2 SW 2 6 1 3 1029.7 1029.7 0.0
25/04:30am 13.6 13.6 11.1 85 1.3 WSW 2 6 1 3 1029.5 1029.5 0.0
25/04:00am 13.7 13.7 11.2 85 1.3 WSW 2 6 1 3 1029.3 1029.3 0.0
25/03:30am 14.1 13.5 11.6 85 1.3 WSW 6 9 3 5 1029.3 1029.3 0.0
25/03:00am 14.3 13.7 11.6 84 1.4 WSW 6 9 3 5 1029.6 1029.6 0.0
25/02:30am 14.6 14.4 11.7 83 1.6 WSW 4 7 2 4 1029.5 1029.5 0.0
25/02:00am 14.9 14.3 11.7 81 1.7 SW 6 9 3 5 1029.4 1029.4 0.0
25/01:30am 15.2 14.6 11.6 79 1.9 WSW 6 11 3 6 1029.5 1029.5 0.0
25/01:00am 15.7 15.5 11.7 77 2.1 SW 4 13 2 7 1029.3 1029.3 0.0
25/12:30am 15.6 15.3 11.6 77 2.2 SSW 4 9 2 5 1029.5 1029.5 0.0
25/12:00am 15.7 15.5 11.7 77 2.1 SW 4 9 2 5 1029.6 1029.6 0.0
 
Date/Time
EST
Temp
°C
App
Temp
°C
Dew
Point
Rel
Hum
%
Delta-T
°C
Wind Press
QNH
hPa
Press
MSL
hPa
Rain
since 9 am
mm
Dir
 
Spd
km/h
Gust
km/h
Spd
kts
Gust
kts
24/11:30pm 15.6 15.3 11.6 77 2.2 SW 4 7 2 4 1029.8 1029.8 0.0
24/11:00pm 15.7 15.0 11.5 76 2.2 SW 6 13 3 7 1030.1 1030.1 0.0
24/10:30pm 16.2 15.6 11.8 75 2.4 SW 6 9 3 5 1030.2 1030.2 0.0
24/10:00pm 16.3 16.2 12.1 76 2.3 SW 4 9 2 5 1030.4 1030.4 0.0
24/09:30pm 16.8 16.6 11.9 73 2.7 SW 4 7 2 4 1030.1 1030.1 0.0
24/09:00pm 17.3 17.0 11.3 68 3.2 SSW 4 6 2 3 1029.8 1029.8 0.0
24/08:30pm 18.4 17.5 11.2 63 3.9 S 7 13 4 7 1029.8 1029.8 0.0
24/08:00pm 18.7 17.8 11.3 62 4.0 SE 7 13 4 7 1029.7 1029.7 0.0
24/07:30pm 19.2 18.6 11.7 62 4.1 SE 6 9 3 5 1029.4 1029.4 0.0
24/07:00pm 19.4 18.9 11.9 62 4.1 SE 6 11 3 6 1029.0 1029.0 0.0
24/06:30pm 19.6 19.1 11.9 61 4.3 SE 6 9 3 5 1028.8 1028.8 0.0
24/06:00pm 19.6 19.1 11.9 61 4.2 E 6 9 3 5 1028.7 1028.7 0.0
24/05:30pm 19.7 18.5 11.5 59 4.5 ESE 9 20 5 11 1028.4 1028.4 0.0
24/05:00pm 19.9 18.8 11.9 60 4.4 ESE 9 17 5 9 1028.0 1028.0 0.0
24/04:30pm 20.7 19.5 11.6 56 5.0 ESE 9 20 5 11 1027.6 1027.6 0.0
24/04:00pm 21.6 20.4 11.6 53 5.5 SE 9 17 5 9 1027.5 1027.5 0.0
24/03:30pm 22.3 21.2 12.0 52 5.8 ESE 9 19 5 10 1026.9 1026.9 0.0
24/03:00pm 22.3 21.3 12.3 53 5.6 ESE 9 17 5 9 1026.7 1026.7 0.0
24/02:30pm 23.0 22.0 12.3 51 6.1 ESE 9 19 5 10 1026.8 1026.8 0.0
24/02:00pm 22.9 21.5 12.2 51 6.0 ESE 11 22 6 12 1026.8 1026.8 0.0
24/01:30pm 22.7 21.4 11.4 49 6.3 ESE 9 19 5 10 1026.7 1026.7 0.0
24/01:00pm 23.4 21.7 11.1 46 6.8 ESE 11 22 6 12 1026.6 1026.6 0.0
24/12:30pm 22.5 21.1 10.9 48 6.4 SSE 9 17 5 9 1026.7 1026.7 0.0
24/12:00pm 22.2 21.2 11.0 49 6.2 SSE 7 22 4 12 1027.4 1027.4 0.0
24/11:30am 22.1 20.9 11.5 51 5.9 SSE 9 19 5 10 1028.0 1028.0 0.0
24/11:00am 21.8 20.6 11.5 52 5.7 SSE 9 17 5 9 1028.1 1028.1 0.0
24/10:30am 21.4 20.2 11.7 54 5.4 S 9 20 5 11 1028.4 1028.4 0.0
24/10:00am 20.6 20.0 12.3 59 4.6 SSW 7 13 4 7 1028.6 1028.6 0.0
24/09:30am 19.8 19.1 12.1 61 4.3 S 7 15 4 8 1028.8 1028.8 0.0
24/09:00am 18.3 17.5 11.6 65 3.6 SSW 7 15 4 8 1028.4 1028.4 0.0
24/08:30am 17.2 16.2 11.0 67 3.3 SSW 7 15 4 8 1028.5 1028.5 0.0
24/08:00am 16.1 15.3 11.1 72 2.7 SW 6 13 3 7 1028.5 1028.5 0.0
24/07:30am 15.6 15.2 11.2 75 2.4 SSW 4 9 2 5 1028.2 1028.2 0.0
24/07:00am 14.3 13.6 11.3 82 1.6 WSW 6 11 3 6 1027.9 1027.9 0.0
24/06:30am 13.8 13.0 11.1 84 1.4 WSW 6 9 3 5 1027.0 1027.0 0.0
24/06:00am 13.9 13.1 11.2 84 1.4 WSW 6 11 3 6 1026.7 1026.7 0.0
24/05:30am 13.9 13.5 11.2 84 1.4 WSW 4 7 2 4 1026.3 1026.3 0.0
24/05:00am 14.0 13.6 11.0 82 1.6 WSW 4 9 2 5 1026.1 1026.1 0.0
24/04:30am 14.5 13.8 11.5 82 1.6 WSW 6 13 3 7 1025.9 1025.9 0.0
24/04:00am 14.5 13.9 11.7 83 1.5 WSW 6 11 3 6 1025.7 1025.7 0.0
24/03:30am 15.1 14.6 11.9 81 1.7 SW 6 15 3 8 1025.8 1025.8 0.0
24/03:00am 15.7 15.0 12.1 79 2.0 SW 7 17 4 9 1026.0 1026.0 0.0
24/02:30am 15.6 15.1 12.0 79 2.0 S 6 13 3 7 1026.3 1026.3 0.0
24/02:00am 15.2 14.9 11.4 78 2.0 SW 4 11 2 6 1026.1 1026.1 0.0
24/01:30am 15.1 14.3 11.1 77 2.1 SW 6 13 3 7 1026.0 1026.0 0.0
24/01:00am 15.6 15.3 11.4 76 2.2 SW 4 9 2 5 1025.9 1025.9 0.0
24/12:30am 15.5 14.7 11.1 75 2.3 S 6 9 3 5 1025.9 1025.9 0.0
24/12:00am 15.3 14.3 10.9 75 2.3 SSW 7 13 4 7 1025.8 1025.8 0.0
 
Date/Time
EST
Temp
°C
App
Temp
°C
Dew
Point
Rel
Hum
%
Delta-T
°C
Wind Press
QNH
hPa
Press
MSL
hPa
Rain
since 9 am
mm
Dir
 
Spd
km/h
Gust
km/h
Spd
kts
Gust
kts
23/11:30pm 14.6 13.7 10.8 78 2.0 SW 6 11 3 6 1025.9 1025.9 0.0
23/11:00pm 14.3 13.3 10.9 80 1.8 WSW 7 11 4 6 1026.0 1026.0 0.0
23/10:30pm 14.1 13.9 10.3 78 2.0 SSW 2 6 1 3 1025.9 1025.9 0.0
23/10:00pm 14.7 14.2 10.7 77 2.1 WSW 4 7 2 4 1025.8 1025.8 0.0
23/09:30pm 15.0 14.3 10.2 73 2.5 SW 4 6 2 3 1025.8 1025.8 0.0
23/09:00pm 15.3 14.6 10.1 71 2.7 WSW 4 9 2 5 1025.9 1025.9 0.0
23/08:30pm 15.4 14.6 9.5 68 3.0 SW 4 9 2 5 1026.0 1026.0 0.0
23/08:00pm 15.8 15.0 9.5 66 3.2 WSW 4 6 2 3 1025.8 1025.8 0.0

Other Formats:

Comma delimited format used in spreadsheet applications
http://www.bom.gov.au/fwo/IDQ60801/IDQ60801.94576.axf

JavaScript Object Notation format (JSON) in row-major order
http://www.bom.gov.au/fwo/IDQ60801/IDQ60801.94576.json